User: anonymous   Login
Location: Unspecified
(0.0000°N, 0.0000°E)
Time: 05:53:27
(UTC+00:00)
Language:

Tiros 1 - Orbit

View from above orbital plane
View from above orbital plane
View from above satellite
View from above satellite

Ground track
Ground track

The orbit data is extracted from the following two-line orbital elements,

1 00029U 60002B   17021.11532052 -.00000100  00000-0  16074-4 0  9993
2 00029  48.3804  55.4200 0024594 312.8168  47.0677 14.74133767 35203
Epoch (UTC): 21 January 2017 02:46:03
Eccentricity: 0.0024594
inclination: 48.3804°
perigee height: 630 km
apogee height: 665 km
right ascension of ascending node: 55.4200°
argument of perigee: 312.8168°
revolutions per day: 14.74133767
mean anomaly at epoch: 47.0677°
orbit number at epoch: 3520

The dashed part of the orbit path shows where the satellite is in the earth's shadow,  

DLR